[[{"header":{"parameterUnit":"m.s-1","parameterCategory":1,"la1":30.2991,"la2":30.254,"lo1":-89.0895,"lo2":-89.0444,"dy":0.0017,"dx":0.0017,"nx":28,"ny":28,"refTime":"2024-11-25T09:00:00:Z","depth":0,"parameterNumber":2,"parameterNumberName":"U-component_of_WINDS"},"data":[0,0,0,0,0,0,0,0,0,0,0,0,0,0,0,0,0,0,0,0,0,0,0,0,0,0,0,0,0,0,0,0,0,0,0,0,0,0,0,0,0,0,0,0,0,0,0,0,0,0,0,0,0,0,0,0,0,0,0.2188,0.2188,0,0.2176,0.2176,0.2176,0.2229,0.2231,0.2233,0.2234,0.222,0.2218,0.2217,0,0,0,0,0,0,0,0,0,0,0,0,0,0.2258,0.2256,0.2188,0.2188,0.2188,0.2176,0.2176,0.2176,0.2229,0.2231,0.2233,0.2235,0.2221,0.2219,0.2216,0,0,0,0,0,0,0,0,0,0,0,0,0,0.2235,0.2256,0.2188,0.2213,0.2215,0.2176,0.2176,0.2176,0.2229,0.2231,0.2233,0.2236,0.2222,0.2219,0.2216,0.2152,0,0,0.2208,0.2207,0,0,0,0,0,0,0,0,0.2236,0.2232,0.221,0.2211,0.2214,0.2207,0.2196,0.2168,0.2228,0.2224,0.2234,0.2237,0.2214,0.2212,0.2204,0.2152,0.2151,0.2208,0.2206,0.2205,0.2204,0,0,0,0,0,0,0,0.2238,0.2233,0.2184,0.2209,0.2212,0.2225,0.2224,0.2191,0.2206,0.2224,0.2228,0.2226,0.2215,0.2207,0.2204,0.2151,0.2208,0.2205,0.2204,0.2202,0.2049,0.2047,0,0,0,0,0,0,0.2236,0.2234,0.2184,0.2183,0.2231,0.2222,0.2221,0.2207,0.2206,0.2208,0.2224,0.2228,0.221,0.2208,0.2204,0.2132,0.2205,0.2202,0.2201,0.2052,0.2049,0.2046,0,0,0,0,0,0,0.2237,0.2231,0.2184,0.221,0.2205,0.2218,0.2201,0.2205,0.2197,0.2206,0.2209,0.2213,0.2212,0.2208,0.2166,0.2132,0.2201,0.2199,0.2054,0.2051,0.2047,0.1986,0,0,0,0,0,0,0.2239,0.2231,0.2207,0.2209,0.2203,0.2146,0.2199,0.2203,0.2192,0.2198,0.2196,0.2198,0.2214,0.217,0.2163,0.213,0.2196,0.2057,0.2053,0.2048,0.1991,0.198,0.1972,0,0,0,0,0,0.2241,0.2189,0.2205,0.2199,0.2173,0.2144,0.2141,0.216,0.2189,0.2165,0.2172,0.2198,0.2137,0.2165,0.2158,0.2123,0.206,0.2054,0.2049,0.1995,0.1983,0.1972,0,0,0,0,0,0,0.2181,0.2189,0.2208,0.2154,0.2148,0.2153,0.2123,0.2145,0.213,0.2136,0.2161,0.216,0.2114,0.2114,0.2145,0.2063,0.2103,0.2096,0.2065,0.2053,0.2044,0.2045,0.2194,0,0,0,0,0,0.2161,0.2137,0.2146,0.2098,0.2094,0.2109,0.2097,0.2113,0.2107,0.2104,0.2108,0.2101,0.2081,0.2067,0.2048,0.1991,0.1993,0.1964,0.1954,0.1946,0.194,0.1913,0.1901,0.2028,0.2028,0.2028,0,0,0.2121,0.2123,0.2105,0.2086,0.2083,0.2058,0.2106,0.2077,0.2059,0.21,0.2061,0.2063,0.2058,0.2009,0.1987,0.2007,0.1906,0.1939,0.1933,0.1931,0.1906,0.1894,0.1884,0.2024,0.2025,0.2025,0,0,0.2035,0.2032,0.1994,0.1991,0.1987,0.1997,0.1988,0.199,0.1994,0.1955,0.1986,0.1965,0.1929,0.1925,0.1917,0.1833,0.1858,0.1826,0.1776,0.1749,0.1739,0.1731,0.1703,0.1692,0.1819,0.1819,0.1819,0,0.1985,0.1949,0.1971,0.1941,0.1932,0.197,0.1932,0.1927,0.1916,0.191,0.1933,0.189,0.1888,0.1841,0.182,0.1812,0.1804,0.1827,0.1739,0.173,0.1723,0.1697,0.1686,0.1816,0.1816,0.1816,0.1817,0,0.1889,0.1863,0.1833,0.1824,0.1812,0.1777,0.1795,0.178,0.1798,0.1806,0.1768,0.1768,0.1752,0.1741,0.1756,0.1696,0.1709,0.1735,0.1776,0.1707,0.1683,0.1673,0.181,0.1812,0.1813,0.1814,0,0,0.1763,0.1769,0.1758,0.1756,0.1755,0.1736,0.1704,0.1689,0.1677,0.1669,0.1644,0.1614,0.1639,0.1631,0.1646,0.1622,0.1559,0.1652,0.1652,0.1637,0.1495,0.1477,0.1465,0.1575,0.1573,0.1572,0.1497,0,0.1681,0.1629,0.1649,0.1595,0.1573,0.1609,0.1582,0.1579,0.1586,0.1569,0.1577,0.1557,0.1589,0.1586,0.1563,0.1571,0.1531,0.1577,0.1554,0.1552,0.1556,0.1452,0.1433,0.1362,0.1487,0.1485,0.1484,0,0.1578,0.1568,0.1512,0.1518,0.151,0.1485,0.1475,0.1457,0.1455,0.1463,0.1455,0.1477,0.1447,0.1487,0.1448,0.1479,0.147,0.1473,0.1471,0.1471,0.1515,0.1452,0.1339,0.133,0.1469,0.147,0.1471,0,0.1496,0.1468,0.1432,0.1428,0.1434,0.1416,0.1417,0.1418,0.1408,0.1399,0.1394,0.138,0.1373,0.1363,0.1381,0.1408,0.134,0.1381,0.1347,0.1346,0.1332,0.1333,0.1219,0.1323,0.1323,0.1323,0.1323,0,0.1403,0.1368,0.1396,0.1373,0.1336,0.136,0.1322,0.1328,0.1328,0.1308,0.1337,0.1318,0.1342,0.1326,0.1339,0.1306,0.1302,0.1308,0.1313,0.1307,0.1307,0.1303,0.1309,0.132,0.1321,0.1322,0.1322,0,0.1305,0.1322,0.1286,0.1295,0.1296,0.1268,0.1276,0.1257,0.1267,0.1242,0.1237,0.1253,0.1235,0.1252,0.1234,0.1244,0.1201,0.1211,0.1202,0.1206,0.1172,0.1175,0.1053,0.104,0.115,0.1148,0.1148,0,0.1246,0.122,0.1227,0.1217,0.1217,0.1199,0.1191,0.1214,0.1204,0.1201,0.1182,0.1167,0.1157,0.1127,0.1137,0.1124,0.1136,0.1094,0.1134,0.113,0.1139,0.1141,0.114,0.1087,0.1085,0.1084,0.1083,0,0.114,0.115,0.1137,0.1128,0.1118,0.1111,0.1106,0.1096,0.112,0.1108,0.1091,0.1082,0.1066,0.1052,0.1043,0.1044,0.1068,0.107,0.1062,0.1057,0.1054,0.1058,0.1182,0.1073,0.1074,0.1075,0.1076,0.1076,0.1061,0.1042,0.1045,0.103,0.103,0.1025,0.1009,0.1018,0.1004,0.0994,0.1008,0.0988,0.0989,0.0979,0.0979,0.0963,0.0981,0.0969,0.0966,0.0963,0.096,0.1055,0.0961,0.0962,0.0962,0.0962,0.0962,0,0.0959,0.0964,0.095,0.0944,0.0933,0.0958,0.0955,0.0944,0.0926,0.0925,0.0915,0.0897,0.0883,0.0893,0.0882,0.0869,0.088,0.0865,0.0868,0.0868,0.0943,0.0952,0.0857,0.0857,0.0857,0.0857,0.0857,0.0857,0.0905,0.0874,0.0885,0.0855,0.0859,0.0841,0.0838,0.0834,0.0834,0.0813,0.0803,0.081,0.0814,0.0804,0.0793,0.0797,0.0792,0.0775,0.0782,0.0852,0.0862,0.0872,0.0882,0.0773,0.0773,0.0709,0.0708,0.0708]},{"header":{"parameterUnit":"m.s-1","parameterCategory":1,"la1":30.2991,"la2":30.254,"lo1":-89.0895,"lo2":-89.0444,"dy":0.0017,"dx":0.0017,"nx":28,"ny":28,"refTime":"2024-11-25T09:00:00:Z","depth":0,"parameterNumber":3,"parameterNumberName":"V-component_of_WINDS"},"data":[0,0,0,0,0,0,0,0,0,0,0,0,0,0,0,0,0,0,0,0,0,0,0,0,0,0,0,0,0,0,0,0,0,0,0,0,0,0,0,0,0,0,0,0,0,0,0,0,0,0,0,0,0,0,0,0,0,0,3.0974,3.0975,0,3.0979,3.0979,3.0979,3.1037,3.1038,3.104,3.1041,3.1042,3.1041,3.1039,0,0,0,0,0,0,0,0,0,0,0,0,0,3.1013,3.1012,3.0974,3.0975,3.0975,3.0979,3.0979,3.0979,3.1036,3.1038,3.104,3.1042,3.1042,3.1041,3.1039,0,0,0,0,0,0,0,0,0,0,0,0,0,3.1005,3.1012,3.0974,3.1004,3.1006,3.0979,3.0979,3.0979,3.1036,3.1038,3.104,3.1042,3.1043,3.1041,3.1039,3.0983,0,0,3.1033,3.1032,0,0,0,0,0,0,0,0,3.1005,3.1003,3.0999,3.1002,3.1005,3.101,3.0994,3.0981,3.1035,3.1025,3.1041,3.1043,3.1029,3.1028,3.1024,3.0983,3.0983,3.1033,3.1032,3.1031,3.103,0,0,0,0,0,0,0,3.1006,3.1004,3.0976,3.0999,3.1002,3.1016,3.1017,3.0991,3.1014,3.1026,3.103,3.103,3.1031,3.1026,3.1025,3.0983,3.1033,3.1031,3.103,3.1029,3.0901,3.0898,0,0,0,0,0,0,3.1003,3.1004,3.0976,3.0976,3.101,3.1014,3.1015,3.1006,3.1015,3.1019,3.1028,3.1033,3.1029,3.1027,3.1025,3.0963,3.1031,3.1029,3.1028,3.0903,3.09,3.0898,0,0,0,0,0,0,3.1003,3.1,3.0976,3.0991,3.0989,3.1011,3.1,3.1005,3.1,3.1017,3.1021,3.1019,3.103,3.1028,3.0994,3.0964,3.1028,3.1026,3.0905,3.0902,3.0899,3.0837,0,0,0,0,0,0,3.1004,3.1,3.0979,3.099,3.0988,3.0945,3.0998,3.1003,3.0997,3.1003,3.1009,3.1013,3.1032,3.0997,3.0992,3.0962,3.1025,3.0908,3.0904,3.09,3.0842,3.0832,3.0824,0,0,0,0,0,3.1005,3.0959,3.0977,3.0974,3.0963,3.0943,3.0942,3.0966,3.0994,3.0974,3.0985,3.1012,3.0968,3.0993,3.0988,3.0957,3.091,3.0905,3.09,3.0846,3.0834,3.0824,0,0,0,0,0,0,3.0941,3.0961,3.0981,3.0938,3.0939,3.0953,3.0927,3.0952,3.0944,3.0949,3.0979,3.098,3.0942,3.0946,3.0974,3.0906,3.0944,3.0938,3.0905,3.0893,3.0884,3.0885,3.1023,0,0,0,0,0,3.0922,3.0905,3.0924,3.0883,3.0883,3.0905,3.0897,3.0917,3.0918,3.0918,3.0927,3.0926,3.0913,3.0903,3.0891,3.0843,3.0846,3.0819,3.081,3.0803,3.0797,3.0775,3.0764,3.0881,3.0881,3.0881,0,0,3.0882,3.0891,3.0878,3.0871,3.0874,3.0856,3.0905,3.0883,3.087,3.0914,3.0885,3.0891,3.0893,3.0852,3.0835,3.0855,3.0766,3.0796,3.079,3.0789,3.0769,3.0758,3.0748,3.0878,3.0878,3.0879,0,0,3.0801,3.0805,3.0774,3.0777,3.0782,3.0797,3.079,3.0801,3.0808,3.0779,3.0812,3.0797,3.0772,3.0774,3.0771,3.0694,3.072,3.0689,3.0641,3.0619,3.061,3.0602,3.0577,3.0568,3.0683,3.0683,3.0683,0,3.075,3.0725,3.0754,3.0732,3.0728,3.077,3.0739,3.074,3.074,3.0737,3.0759,3.0731,3.0735,3.0697,3.0679,3.0674,3.0668,3.0688,3.0609,3.0602,3.0595,3.0571,3.0562,3.0679,3.068,3.068,3.0681,0,3.0664,3.0647,3.0621,3.0623,3.0617,3.059,3.0615,3.0605,3.0625,3.0639,3.061,3.0616,3.0608,3.06,3.0618,3.0566,3.0579,3.0604,3.0644,3.058,3.0558,3.0549,3.0674,3.0676,3.0677,3.0678,0,0,3.0541,3.0562,3.0552,3.0555,3.0565,3.0552,3.0528,3.0522,3.0514,3.0513,3.0495,3.0475,3.05,3.0497,3.0516,3.0497,3.0439,3.0526,3.0526,3.0511,3.0385,3.0367,3.0356,3.0456,3.0455,3.0453,3.0386,0,3.0465,3.0426,3.0453,3.041,3.0396,3.0437,3.0416,3.042,3.0432,3.0422,3.0435,3.0422,3.0455,3.0454,3.0437,3.045,3.0414,3.0455,3.044,3.044,3.044,3.0344,3.0324,3.026,3.0377,3.0376,3.0375,0,3.037,3.0369,3.0325,3.0342,3.0337,3.0318,3.0317,3.0306,3.0312,3.0322,3.0321,3.0346,3.0324,3.0363,3.0334,3.0361,3.0357,3.0363,3.0361,3.0361,3.0404,3.0344,3.024,3.0231,3.0361,3.0362,3.0363,0,3.0288,3.0274,3.0248,3.0249,3.0266,3.0253,3.0259,3.0268,3.0264,3.0262,3.026,3.0255,3.0253,3.0248,3.0272,3.0297,3.0241,3.0281,3.0251,3.025,3.0238,3.0238,3.0133,3.0232,3.0232,3.0232,3.0232,0,3.0201,3.0173,3.0212,3.0195,3.0166,3.0197,3.0167,3.0178,3.0186,3.0173,3.0206,3.0193,3.0224,3.0214,3.0232,3.0208,3.0206,3.0214,3.022,3.0212,3.0212,3.0211,3.0217,3.023,3.023,3.0231,3.0231,0,3.0105,3.0129,3.0103,3.0123,3.0128,3.0105,3.0123,3.0109,3.0125,3.0108,3.0105,3.013,3.012,3.0144,3.0136,3.0149,3.0114,3.0126,3.0113,3.0117,3.0087,3.009,2.9978,2.9966,3.0071,3.007,3.0069,0,3.0048,3.0029,3.0048,3.0043,3.0048,3.0038,3.0035,3.0066,3.0061,3.0069,3.0054,3.0048,3.0045,3.0028,3.0045,3.0041,3.0054,3.0015,3.0053,3.0048,3.0056,3.0058,3.0057,3.0007,3.0006,3.0005,3.0004,0,2.9947,2.9961,2.9956,2.9957,2.9953,2.9954,2.9957,2.995,2.9983,2.9977,2.9969,2.9967,2.9962,2.9956,2.9956,2.9963,2.9989,2.9992,2.9985,2.9978,2.9973,2.9978,3.0094,2.9995,2.9995,2.9996,2.9997,2.9997,2.9871,2.9856,2.9869,2.9863,2.987,2.9873,2.9862,2.9878,2.9872,2.9872,2.989,2.9879,2.9888,2.9892,2.9896,2.9888,2.9906,2.9895,2.9893,2.989,2.9887,2.9973,2.9888,2.9888,2.9889,2.9889,2.9889,0,2.9773,2.9784,2.9779,2.9784,2.978,2.9807,2.9813,2.9808,2.9799,2.9806,2.9803,2.9796,2.9791,2.9809,2.9807,2.9797,2.981,2.9796,2.9798,2.98,2.9869,2.9877,2.9786,2.9786,2.9786,2.9786,2.9786,2.9786,2.9722,2.9701,2.9717,2.97,2.971,2.9702,2.9703,2.9707,2.9713,2.9704,2.9701,2.9713,2.9725,2.9725,2.9723,2.9728,2.9727,2.9709,2.9719,2.9784,2.9794,2.9804,2.9811,2.9708,2.9708,2.965,2.965,2.9649]}]]